Date,TemperatureHighF,TemperatureAvgF,TemperatureLowF,DewpointHighF,DewpointAvgF,DewpointLowF,HumidityHigh,HumidityAvg,HumidityLow,PressureMaxIn,PressureMinIn,WindSpeedMaxMPH,WindSpeedAvgMPH,GustSpeedMaxMPH,PrecipitationSumIn
2014-1-1,53.0,38.5,18.5,36.0,28.0,15.0,86,67,52,30.35,29.94,20,9,27,0.00
2014-1-2,30.3,20.4,12.8,16.0,12.1,8.0,85,71,54,30.59,30.36,14,5,22,0.00
2014-1-3,44.8,31.0,16.4,25.0,18.9,11.0,82,63,43,30.58,30.01,21,10,32,0.00
2014-1-4,48.6,41.7,30.6,42.0,33.8,25.0,86,74,57,30.00,29.82,22,10,27,0.00
2014-1-5,29.8,18.4,10.7,26.0,11.3,-1.0,90,75,55,30.70,29.94,26,11,27,0.00
2014-1-6,17.7,9.0,2.1,1.0,-3.3,-10.0,82,59,37,30.84,30.62,13,3,19,0.00
2014-1-7,45.2,28.0,6.9,21.0,13.3,0.0,77,56,37,30.62,30.29,17,8,24,0.00
2014-1-8,38.4,34.1,30.3,33.0,25.1,16.0,95,72,48,30.35,30.27,18,6,20,0.03
2014-1-9,36.8,33.9,32.5,36.0,33.0,31.0,96,96,94,30.34,30.09,10,4,14,0.02
2014-1-10,57.8,44.9,35.3,55.0,41.0,31.0,98,87,54,30.08,29.63,21,6,26,0.21
2014-1-11,57.2,43.1,32.7,34.0,31.6,28.0,89,67,37,30.07,29.80,15,4,22,0.00
2014-1-12,70.6,54.3,32.1,48.0,34.0,27.0,83,50,25,30.03,29.66,33,14,44,0.00
2014-1-13,58.7,47.5,37.7,48.0,31.3,25.0,73,55,32,30.01,29.71,15,4,22,0.00
2014-1-14,52.3,44.3,29.9,36.0,22.2,15.0,62,42,28,30.34,29.94,18,5,25,0.00
2014-1-15,48.3,37.9,27.6,27.0,21.2,16.0,65,52,38,30.39,30.01,11,4,17,0.00
2014-1-16,55.5,47.6,41.0,32.0,23.3,15.0,59,41,23,30.20,29.96,23,8,29,0.00
2014-1-17,44.2,34.9,27.2,20.0,15.7,11.0,71,47,31,30.36,30.18,15,6,23,0.00
2014-1-18,60.9,46.0,28.7,28.0,23.6,18.0,66,43,24,30.22,29.97,19,8,31,0.00
2014-1-19,64.0,45.0,22.7,30.0,26.1,19.0,89,53,25,30.27,29.98,19,6,22,0.00
2014-1-20,61.2,49.4,31.8,32.0,27.4,24.0,77,45,26,30.32,29.92,17,6,24,0.00
2014-1-21,42.2,24.5,16.5,18.0,6.3,-2.0,68,48,25,30.57,30.25,20,6,30,0.00
2014-1-22,45.7,30.9,16.9,24.0,15.3,8.0,80,54,36,30.42,30.22,15,4,19,0.00
2014-1-23,32.9,17.0,6.0,19.0,0.3,-5.0,78,49,38,30.92,30.43,22,8,29,0.00
2014-1-24,40.9,23.5,3.5,10.0,3.3,-2.0,83,48,22,30.90,30.13,24,8,28,0.00
2014-1-25,62.5,45.0,31.3,37.0,25.2,10.0,81,48,35,30.13,29.98,15,5,20,0.00
2014-1-26,68.0,48.5,31.2,36.0,31.2,23.0,85,56,26,30.11,29.70,34,4,36,0.00
2014-1-27,37.5,22.1,18.1,20.0,-0.6,-6.0,53,37,29,30.57,30.12,23,9,31,0.00
2014-1-28,30.5,20.8,15.5,9.0,0.8,-4.0,69,43,27,30.65,30.48,12,4,16,0.00
2014-1-29,44.3,30.0,12.9,15.0,11.6,8.0,81,50,28,30.49,30.15,19,8,23,0.00
2014-1-30,50.6,39.1,32.6,30.0,21.1,11.0,76,50,40,30.14,29.87,28,10,37,0.00
2014-1-31,44.6,38.0,31.8,38.0,33.5,29.0,95,84,73,29.94,29.87,10,4,13,0.00
2014-2-1,31.5,30.0,28.7,30.0,28.0,25.0,96,92,84,30.26,29.87,13,6,22,0.00
2014-2-2,29.5,24.4,17.5,25.0,19.4,13.0,92,81,68,30.44,30.26,16,7,22,0.00
2014-2-3,36.9,24.6,7.6,23.0,16.1,5.0,91,72,42,30.44,30.18,9,2,12,0.02
2014-2-4,33.8,31.5,27.6,31.0,26.7,21.0,95,83,59,30.20,29.96,16,3,20,0.00
2014-2-5,27.2,16.0,11.2,25.0,8.8,2.0,91,73,65,30.77,30.21,19,10,23,0.01
2014-2-6,18.5,13.9,10.2,8.0,4.9,2.0,78,67,61,30.76,30.57,14,5,19,0.00
2014-2-7,26.3,20.4,13.0,23.0,13.0,4.0,89,73,65,30.57,30.32,10,4,13,0.00
2014-2-8,31.6,28.7,25.3,30.0,26.8,23.0,95,92,89,30.31,30.14,8,4,14,0.00
2014-2-9,33.1,30.7,25.9,30.0,28.0,21.0,96,89,81,30.37,30.21,12,4,17,0.00
2014-2-10,27.5,22.9,19.8,21.0,15.5,11.0,84,73,65,30.51,30.37,16,8,19,0.00
2014-2-11,36.8,24.5,17.1,15.0,12.4,10.0,87,62,34,30.55,30.34,10,4,14,0.01
2014-2-12,47.6,30.8,16.4,30.0,20.8,12.0,87,69,45,30.33,30.09,15,3,16,0.03
2014-2-13,60.5,40.9,23.3,33.0,28.6,21.0,93,66,33,30.10,29.85,12,2,18,0.00
2014-2-14,57.2,45.0,31.3,39.0,32.5,24.0,85,64,40,30.18,29.73,25,6,34,0.00
2014-2-15,67.6,44.5,22.8,33.0,28.1,20.0,91,59,25,30.19,29.95,25,5,31,0.00
2014-2-16,65.1,50.8,31.2,42.0,33.0,28.0,89,55,27,30.16,29.88,16,5,21,0.00
2014-2-17,63.4,54.2,35.2,52.0,34.3,25.0,83,50,24,30.16,29.79,18,6,31,0.00
2014-2-18,72.8,51.2,29.1,37.0,31.7,24.0,83,52,22,30.14,29.81,26,7,32,0.00
2014-2-19,66.6,55.9,38.2,60.0,43.1,30.0,96,65,35,30.04,29.59,23,7,29,0.03
2014-2-20,67.9,56.2,44.0,61.0,40.2,17.0,89,58,28,30.07,29.43,24,12,41,0.00
2014-2-21,64.2,46.8,25.6,27.0,19.3,13.0,74,38,15,30.11,29.98,23,5,26,0.00
2014-2-22,71.1,54.4,37.5,35.0,30.0,24.0,64,42,24,30.03,29.81,19,6,24,0.00
2014-2-23,52.6,42.7,33.9,33.0,27.6,20.0,79,57,36,30.32,29.92,20,8,24,0.00
2014-2-24,49.4,39.6,26.5,30.0,23.5,19.0,76,54,40,30.35,30.13,12,3,15,0.00
2014-2-25,45.6,38.2,27.7,30.0,22.1,15.0,66,53,44,30.44,30.23,24,8,25,0.00
2014-2-26,35.3,24.5,17.8,15.0,8.8,3.0,75,54,26,30.48,30.21,16,6,28,0.00
2014-2-27,51.2,33.8,16.0,23.0,17.3,10.0,81,54,29,30.21,29.94,11,2,14,0.00
2014-2-28,48.5,41.4,35.5,37.0,30.1,20.0,87,65,49,30.05,29.79,19,6,24,0.10
2014-3-1,51.7,40.4,25.2,42.0,34.7,23.0,92,81,64,30.24,30.04,18,6,27,0.00
2014-3-2,24.7,14.9,8.5,23.0,11.7,5.0,91,87,83,30.54,30.24,23,11,30,0.00
2014-3-3,20.1,11.7,5.0,8.0,3.8,0.0,87,71,53,30.67,30.43,14,5,21,0.00
2014-3-4,39.8,24.9,9.3,27.0,17.0,5.0,86,73,57,30.42,30.13,11,4,15,0.02
2014-3-5,46.3,36.7,25.6,37.0,29.0,23.0,92,76,52,30.30,30.14,7,2,12,0.10
2014-3-6,54.1,41.6,34.3,37.0,34.2,31.0,93,77,50,30.31,30.08,7,2,11,0.01
2014-3-7,59.7,47.4,32.7,41.0,35.9,30.0,90,67,41,30.07,29.85,21,7,26,0.00
2014-3-8,45.1,37.1,33.5,39.0,34.0,31.0,93,89,73,30.40,29.99,16,5,21,0.21
2014-3-9,58.8,43.9,30.8,43.0,36.8,29.0,95,78,54,30.41,30.18,10,4,14,0.00
2014-3-10,76.8,57.1,40.9,44.0,38.0,31.0,92,58,19,30.18,29.81,20,6,24,0.00
2014-3-11,81.5,63.3,49.3,56.0,47.9,37.0,90,60,29,29.91,29.45,23,13,34,0.00
2014-3-12,56.4,46.3,36.5,37.0,29.7,27.0,74,55,33,30.30,29.93,27,9,35,0.00
2014-3-13,68.7,52.7,33.6,31.0,26.2,21.0,78,42,17,30.27,30.02,19,7,23,0.00
2014-3-14,71.8,57.8,48.4,39.0,33.8,28.0,69,43,23,30.03,29.95,19,6,21,0.00
2014-3-15,66.1,54.1,41.3,56.0,48.0,36.0,93,80,70,30.02,29.79,18,4,23,0.08
2014-3-16,54.9,42.2,34.8,53.0,38.5,28.0,96,87,70,30.19,29.80,23,11,37,0.86
2014-3-17,54.9,40.3,24.7,31.0,26.4,22.0,92,61,35,30.17,29.71,15,4,17,0.00
2014-3-18,76.0,57.7,46.0,42.0,37.1,30.0,72,49,25,29.89,29.49,30,15,39,0.00
2014-3-19,59.8,47.1,39.8,33.0,30.8,27.0,73,56,29,30.27,29.91,17,6,26,0.00
2014-3-20,70.6,52.9,32.2,34.0,30.4,28.0,85,49,21,30.25,29.98,19,6,24,0.00
2014-3-21,75.5,61.4,48.6,52.0,39.8,32.0,56,46,33,30.06,29.82,22,8,26,0.00
2014-3-22,57.6,49.9,42.7,35.0,31.7,25.0,72,51,35,30.32,30.07,17,8,26,0.02
2014-3-23,48.6,40.4,31.9,28.0,23.1,16.0,71,51,38,30.54,30.33,20,7,26,0.00
2014-3-24,58.3,41.5,27.1,34.0,29.4,23.0,87,65,36,30.35,30.14,23,4,27,0.00
2014-3-25,49.3,38.6,28.1,31.0,26.3,23.0,94,65,36,30.49,30.32,15,4,21,0.00
2014-3-26,54.0,43.4,33.8,42.0,32.1,23.0,85,66,38,30.32,29.86,25,11,40,0.20
2014-3-27,80.5,63.1,50.9,60.0,49.2,33.0,87,65,18,29.85,29.57,35,17,43,0.00
2014-3-28,55.3,48.4,40.9,44.0,38.7,35.0,79,69,58,30.17,29.85,15,6,22,0.02
2014-3-29,64.7,49.2,37.1,42.0,37.8,35.0,91,68,33,30.36,30.17,11,3,14,0.00
2014-3-30,74.6,58.1,39.2,42.0,38.8,35.0,85,53,27,30.28,29.93,22,10,32,0.00
2014-3-31,74.4,62.7,54.2,59.0,50.9,41.0,94,67,47,30.00,29.78,28,12,30,0.50
2014-4-1,60.0,51.7,45.0,53.0,37.5,30.0,95,59,49,30.11,29.89,14,5,19,0.00
2014-4-2,80.6,67.1,48.3,68.0,59.5,42.0,92,77,65,29.92,29.66,22,10,32,0.00
2014-4-3,83.9,71.5,50.0,69.0,61.9,39.0,86,73,32,29.91,29.57,26,11,30,0.08
2014-4-4,58.1,47.5,39.6,39.0,32.8,27.0,78,59,31,30.22,29.92,18,7,25,0.00
2014-4-5,63.3,49.0,33.1,39.0,34.1,30.0,90,61,31,30.24,30.03,14,4,17,0.00
2014-4-6,53.9,49.0,43.1,46.0,42.9,38.0,93,80,55,30.12,29.86,8,3,19,0.09
2014-4-7,63.4,53.1,45.3,49.0,46.0,44.0,95,79,50,29.97,29.83,13,3,21,0.21
2014-4-8,64.6,54.5,41.4,45.0,34.9,23.0,79,53,21,30.18,29.96,20,7,31,0.00
2014-4-9,77.6,58.2,35.3,47.0,37.2,30.0,86,51,26,30.24,29.93,22,7,27,0.00
2014-4-10,85.9,72.2,61.6,56.0,50.6,46.0,62,48,31,29.94,29.78,23,11,30,0.00
2014-4-11,78.2,65.3,50.3,61.0,54.8,47.0,88,70,55,30.04,29.91,16,5,22,0.00
2014-4-12,81.3,70.9,63.3,64.0,60.2,58.0,86,70,48,29.94,29.68,28,14,37,0.00
2014-4-13,79.8,67.0,45.5,65.0,59.4,40.0,89,77,50,29.86,29.45,32,15,36,0.19
2014-4-14,47.6,41.5,33.8,40.0,31.1,21.0,90,69,40,30.30,29.85,20,9,30,0.00
2014-4-15,61.7,45.5,27.1,31.0,26.9,23.0,89,54,24,30.32,30.12,9,2,17,0.00
2014-4-16,64.9,54.0,42.6,37.0,34.2,30.0,71,49,33,30.14,29.98,37,12,39,0.00
2014-4-17,63.3,53.4,41.6,46.0,40.5,36.0,84,63,50,30.30,30.10,14,4,17,0.00
2014-4-18,73.4,56.5,39.6,48.0,43.4,38.0,93,66,35,30.33,30.15,10,2,12,0.00
2014-4-19,76.9,62.9,46.8,53.0,48.8,43.0,90,63,35,30.24,30.09,17,5,25,0.00
2014-4-20,76.1,64.3,54.1,61.0,55.6,50.0,92,75,54,30.17,30.04,13,4,18,0.03
2014-4-21,72.1,63.3,58.5,64.0,60.3,57.0,96,90,70,30.06,29.97,6,1,10,0.45
2014-4-22,74.6,62.7,52.6,57.0,47.5,30.0,97,63,21,30.14,29.97,10,3,14,0.00
2014-4-23,82.5,66.6,46.7,60.0,51.7,44.0,90,62,41,30.00,29.74,21,7,27,0.00
2014-4-24,72.1,66.3,48.8,65.0,55.7,43.0,90,70,44,29.96,29.64,30,11,33,0.19
2014-4-25,78.6,62.8,43.1,47.0,42.9,39.0,93,55,26,30.06,29.86,17,6,24,0.00
2014-4-26,85.2,71.6,56.1,66.0,54.4,43.0,71,55,47,29.89,29.59,27,12,37,0.00
2014-4-27,85.1,75.3,64.4,70.0,58.1,37.0,85,60,20,29.61,29.33,28,13,38,0.11
2014-4-28,73.5,64.4,55.4,46.0,41.5,36.0,59,44,26,29.67,29.35,19,9,27,0.00
2014-4-29,61.4,54.3,49.0,41.0,38.7,37.0,67,56,41,29.98,29.66,24,8,26,0.00
2014-4-30,60.9,52.5,44.6,40.0,35.0,29.0,78,54,31,30.13,29.98,15,6,24,0.00
2014-5-1,66.1,54.4,43.8,41.0,35.4,31.0,78,51,33,30.15,30.03,13,4,21,0.00
2014-5-2,72.2,55.7,37.8,45.0,37.4,31.0,94,58,22,30.07,29.94,16,2,18,0.00
2014-5-3,86.7,67.0,44.6,48.0,41.6,38.0,82,46,19,30.02,29.92,14,6,22,0.00
2014-5-4,93.8,78.0,60.2,52.0,47.8,44.0,62,37,19,29.95,29.78,22,12,34,0.00
2014-5-5,90.3,78.2,66.7,62.0,53.7,47.0,65,44,32,29.81,29.66,22,12,31,0.00
2014-5-6,86.7,76.2,66.8,67.0,62.4,57.0,74,63,52,29.73,29.60,28,13,31,0.00
2014-5-7,85.8,75.1,68.1,69.0,64.7,62.0,81,70,57,29.78,29.67,25,14,32,0.00
2014-5-8,74.4,70.8,67.1,67.0,65.4,64.0,93,83,70,29.86,29.70,21,8,28,0.11
2014-5-9,78.5,69.0,59.3,66.0,60.7,55.0,94,76,53,29.95,29.80,11,3,15,0.00
2014-5-10,86.2,73.7,59.4,68.0,64.1,57.0,96,74,51,29.90,29.74,22,9,29,0.00
2014-5-11,85.9,78.0,71.0,70.0,68.4,67.0,90,73,58,29.81,29.66,25,14,34,0.00
2014-5-12,77.1,64.4,55.4,70.0,55.8,-99.9,94,83,75,30.10,29.70,21,-9,27,0.25
2014-5-13,62.7,55.5,50.3,51.0,46.7,43.0,84,73,60,30.30,30.10,12,5,19,0.25
2014-5-14,63.8,56.4,47.2,50.0,43.9,33.0,88,66,32,30.30,30.21,14,3,21,0.01
2014-5-15,66.7,55.4,45.9,47.0,44.2,43.0,90,68,43,30.23,30.17,11,4,15,0.01
2014-5-19,82.4,73.6,73.6,64.0,54.2,-99.9,71,58,51,29.89,0.00,28,-41,37,0.00
2014-5-20,85.6,76.0,68.2,67.0,64.5,62.0,81,68,52,29.93,29.86,31,15,35,0.00
2014-5-21,84.7,76.0,69.4,71.0,66.9,64.0,84,74,62,30.03,29.89,18,10,28,0.00
2014-5-22,86.1,75.2,60.3,68.0,64.0,59.0,96,71,42,30.11,30.00,16,5,21,0.00
2014-5-23,85.2,74.6,64.0,70.0,65.3,62.0,94,74,48,30.09,30.00,15,4,19,0.00
2014-5-24,81.2,74.0,69.6,71.0,67.9,65.0,91,81,61,30.07,29.96,15,4,25,0.24
2014-5-25,84.4,74.9,66.7,71.0,67.3,64.0,93,78,58,30.04,29.92,15,6,25,0.02
2014-5-26,77.6,69.2,64.9,70.0,66.7,64.0,96,91,76,30.09,29.99,12,3,27,2.07
2014-5-27,72.9,67.2,63.8,69.0,65.5,63.0,98,94,84,30.01,29.90,11,2,13,0.27
2014-5-28,80.4,71.3,63.7,68.0,65.7,63.0,98,83,62,30.00,29.91,8,2,12,0.27
2014-5-29,85.0,74.6,63.7,71.0,66.8,62.0,97,78,55,29.95,29.86,11,2,15,0.00
2014-5-30,83.3,73.1,66.0,71.0,67.9,64.0,96,84,62,29.98,29.92,12,2,19,0.13
2014-5-31,82.2,73.9,67.8,71.0,68.6,66.0,95,84,66,30.03,29.94,13,2,17,0.13
2014-6-1,84.9,76.2,68.9,72.0,70.3,68.0,96,83,64,29.99,29.80,19,7,22,0.00
2014-6-2,83.8,75.5,65.6,76.0,71.0,64.0,97,86,76,30.01,29.86,19,6,22,1.54
2014-6-3,88.6,79.9,70.7,76.0,72.7,69.0,96,80,63,30.03,29.78,20,7,25,0.00
2014-6-4,90.0,81.7,73.1,77.0,73.3,70.0,90,76,63,29.85,29.73,22,10,33,0.00
2014-6-5,88.1,79.6,73.1,78.0,73.1,71.0,96,81,67,29.92,29.70,17,7,24,0.01
2014-6-6,82.1,75.8,69.9,73.0,70.1,65.0,95,83,64,29.98,29.84,18,3,28,0.02
2014-6-7,85.3,75.9,65.6,70.0,67.6,64.0,94,76,55,29.95,29.78,17,5,22,0.17
2014-6-8,74.4,68.2,65.5,69.0,65.5,64.0,96,91,82,30.02,29.89,10,3,14,0.21
2014-6-9,78.6,70.0,65.0,69.0,64.5,60.0,97,84,60,29.90,29.64,18,4,20,0.30
2014-6-10,76.2,68.3,62.1,64.0,62.3,59.0,94,82,63,29.85,29.67,19,4,23,0.00
2014-6-11,83.8,71.5,57.2,68.0,63.2,56.0,97,77,55,29.92,29.77,11,2,15,0.00
2014-6-12,81.9,75.6,67.4,69.0,65.7,62.0,90,72,60,30.02,29.77,18,5,22,0.12
2014-6-13,81.7,71.5,58.9,63.0,60.2,56.0,95,70,43,30.09,29.93,8,2,13,0.00
2014-6-14,84.2,76.0,65.9,73.0,67.4,61.0,85,75,65,29.96,29.76,23,11,32,0.00
2014-6-15,84.6,76.0,64.5,76.0,70.3,63.0,94,82,72,29.95,29.73,23,9,25,0.14
2014-6-16,87.7,81.4,74.8,74.0,72.3,71.0,88,75,60,30.00,29.86,23,12,33,0.00
2014-6-17,88.5,81.8,76.1,77.0,73.9,71.0,86,77,66,29.95,29.85,21,12,29,0.00
2014-6-18,89.4,81.9,75.3,75.0,73.2,72.0,91,76,59,29.93,29.88,25,11,33,0.00
2014-6-19,82.0,77.1,72.5,74.0,71.2,69.0,91,82,72,30.04,29.93,23,8,23,0.01
2014-6-20,90.2,80.6,72.9,74.0,71.9,69.0,94,76,52,30.10,29.98,10,4,17,0.01
2014-6-21,90.7,81.6,72.0,73.0,71.8,70.0,95,74,51,30.02,29.87,14,4,17,0.00
2014-6-22,89.6,79.4,71.6,75.0,71.8,68.0,93,78,60,29.92,29.78,16,5,24,0.33
2014-6-23,80.0,72.7,68.1,71.0,68.0,66.0,96,86,63,29.97,29.83,10,2,16,0.08
2014-6-24,86.8,77.3,64.7,72.0,68.2,63.0,96,75,54,30.06,29.95,9,2,14,0.08
2014-6-25,88.3,77.1,69.1,72.0,68.5,66.0,93,77,49,30.05,29.93,16,3,29,0.00
2014-6-26,85.6,76.8,67.9,74.0,70.6,67.0,96,82,63,30.02,29.85,14,6,22,0.00
2014-6-27,84.1,77.6,73.8,74.0,71.8,70.0,91,82,69,29.90,29.79,20,10,26,0.00
2014-6-28,83.7,76.7,67.8,75.0,72.1,66.0,94,86,75,29.95,29.84,20,8,28,0.47
2014-6-29,89.7,82.4,76.0,79.0,75.8,73.0,94,81,67,29.98,29.86,19,8,23,0.47
2014-6-30,92.4,83.8,76.4,77.0,73.2,70.0,88,72,48,29.90,29.77,22,10,28,0.00
2014-7-1,88.5,80.9,73.3,74.0,70.1,66.0,86,71,50,30.01,29.79,12,4,16,0.00
2014-7-2,81.8,75.1,64.2,69.0,62.3,57.0,90,66,46,30.18,30.00,11,4,17,0.00
2014-7-3,81.4,70.1,57.6,62.0,57.5,54.0,88,66,43,30.25,30.14,8,2,13,0.00
2014-7-4,86.7,74.9,60.1,70.0,65.0,58.0,94,73,52,30.26,30.15,11,3,16,0.00
2014-7-5,88.3,79.2,70.3,73.0,70.2,67.0,90,75,60,30.20,30.02,18,8,24,0.00
2014-7-6,94.5,83.5,72.8,75.0,72.2,68.0,86,70,52,30.05,29.87,19,10,26,0.00
2014-7-7,97.2,86.5,76.4,75.0,71.5,69.0,77,62,46,29.94,29.80,20,9,24,0.00
2014-7-8,91.7,84.0,74.2,75.0,70.0,63.0,74,63,51,30.02,29.83,11,4,18,0.00
2014-7-9,90.1,78.8,65.3,70.0,65.7,62.0,93,67,43,30.07,29.97,11,2,14,0.00
2014-7-10,75.7,70.4,65.5,71.0,67.8,64.0,95,91,83,30.17,29.98,16,4,24,0.74
2014-7-11,91.5,80.4,68.5,75.0,70.8,67.0,96,75,52,30.10,30.03,16,6,22,0.74
2014-7-12,93.3,83.6,74.2,72.0,69.4,68.0,85,64,45,30.12,30.00,16,6,22,0.00
2014-7-13,98.1,85.3,72.2,74.0,69.5,66.0,82,61,41,30.05,29.89,15,5,19,0.00
2014-7-14,90.6,80.7,73.1,75.0,70.1,61.0,93,72,37,30.07,29.91,11,3,21,0.00
2014-7-15,76.7,70.4,62.2,64.0,56.5,51.0,86,63,44,30.15,30.03,9,3,15,0.00
2014-7-16,73.8,64.8,57.8,62.0,58.9,56.0,95,82,54,30.12,30.04,7,1,10,0.12
2014-7-17,67.4,64.4,62.4,65.0,62.7,60.0,96,94,89,30.10,30.03,13,3,18,0.17
2014-7-18,74.5,65.8,58.1,65.0,61.1,57.0,96,85,69,30.12,30.03,11,2,14,0.17
2014-7-19,78.5,68.8,57.4,67.0,62.5,56.0,97,82,60,30.09,30.00,9,2,16,0.01
2014-7-20,84.2,73.2,60.8,72.0,66.3,59.0,97,80,64,30.07,29.95,14,5,21,0.00
2014-7-21,89.6,79.4,68.5,78.0,72.7,67.0,94,80,66,30.07,29.97,15,6,19,0.00
2014-7-22,93.1,82.8,72.8,79.0,75.4,71.0,95,79,61,30.10,30.02,13,4,14,0.00
2014-7-23,91.6,79.0,71.4,78.0,73.8,68.0,95,84,61,30.13,29.98,12,2,29,0.05
2014-7-24,87.4,77.4,65.9,75.0,71.1,65.0,97,82,63,30.09,29.97,10,3,16,0.05
2014-7-25,93.1,82.2,72.6,77.0,73.9,71.0,95,77,58,30.01,29.85,21,9,24,0.00
2014-7-26,96.6,86.0,75.9,77.0,74.6,72.0,88,70,52,29.95,29.85,17,8,22,0.00
2014-7-27,90.2,83.4,76.6,77.0,71.5,64.0,84,68,51,30.08,29.90,14,4,19,0.00
2014-7-28,86.3,77.0,65.3,70.0,63.2,59.0,88,64,42,30.23,30.08,10,3,16,0.00
2014-7-29,89.4,76.3,62.1,68.0,64.0,60.0,94,69,43,30.18,30.04,9,1,11,0.00
2014-7-30,75.8,71.3,67.8,70.0,68.3,67.0,96,90,76,30.10,30.02,13,2,17,1.52
2014-7-31,73.3,69.4,67.0,70.0,67.5,66.0,97,94,85,30.10,30.04,7,1,11,0.03
2014-8-1,82.1,72.8,65.5,68.0,66.3,65.0,97,82,58,30.12,30.03,6,1,9,0.03
2014-8-2,87.2,75.5,62.9,71.0,66.7,62.0,97,76,51,30.14,30.05,9,2,15,0.00
2014-8-3,89.5,77.8,66.2,73.0,68.3,65.0,96,75,45,30.16,30.04,7,1,10,0.00
2014-8-4,89.3,78.6,67.1,71.0,68.6,65.0,95,73,48,30.12,30.01,8,2,18,0.00
2014-8-5,88.9,78.4,66.2,71.0,68.3,64.0,94,73,49,30.10,30.01,11,3,18,0.00
2014-8-6,92.3,81.7,71.3,78.0,73.6,69.0,92,77,59,30.02,29.87,19,6,27,0.00
2014-8-7,90.4,81.1,71.9,78.0,74.5,70.0,96,81,62,29.99,29.81,15,6,22,1.15
2014-8-8,89.7,80.4,74.4,80.0,75.6,71.0,96,86,67,29.97,29.86,7,1,13,0.01
2014-8-9,86.0,78.4,73.3,78.0,74.2,71.0,96,87,71,30.03,29.92,9,3,16,0.02
2014-8-10,90.5,80.1,70.8,76.0,72.9,70.0,96,80,61,30.03,29.93,10,2,14,0.06
2014-8-11,88.1,79.1,70.3,73.0,69.7,64.0,93,74,54,30.08,29.98,11,3,15,0.00
2014-8-12,82.3,73.3,63.4,64.0,61.0,58.0,90,67,45,30.14,30.03,8,3,14,0.00
2014-8-13,84.7,72.2,59.2,66.0,61.8,58.0,95,73,47,30.16,30.04,7,1,10,0.00
2014-8-14,87.6,75.4,62.4,69.0,65.8,61.0,96,74,52,30.11,29.96,10,3,13,0.00
2014-8-15,88.2,79.8,70.6,72.0,69.6,67.0,88,72,57,30.01,29.87,16,7,22,0.00
2014-8-16,90.6,80.6,73.8,76.0,71.6,68.0,88,74,59,29.89,29.81,18,6,21,0.00
2014-8-17,94.4,82.9,71.3,78.0,72.5,70.0,95,73,49,29.95,29.82,9,2,11,0.00
2014-8-18,85.2,77.6,71.3,76.0,72.5,69.0,94,84,63,29.92,29.79,14,4,16,0.12
2014-8-19,96.3,83.2,69.1,75.0,71.6,66.0,94,70,41,29.90,29.79,11,4,17,0.12
2014-8-20,92.0,82.2,74.0,75.0,72.1,67.0,91,73,48,29.95,29.86,19,7,25,0.00
2014-8-21,92.6,84.0,76.0,77.0,74.4,72.0,87,73,58,29.99,29.91,19,9,23,0.00
2014-8-22,97.6,86.0,76.2,77.0,73.8,71.0,84,68,50,29.98,29.89,17,7,21,0.00
2014-8-23,97.4,85.6,74.8,73.0,70.7,67.0,87,63,39,29.96,29.85,16,7,22,0.00
2014-8-24,97.4,85.4,74.8,75.0,71.1,69.0,82,64,42,29.93,29.85,15,6,21,0.00
2014-8-25,96.0,83.6,71.7,76.0,71.8,69.0,93,70,43,29.99,29.89,10,2,17,0.00
2014-8-26,95.3,83.7,72.2,76.0,72.3,69.0,91,70,46,30.09,29.96,11,2,19,0.00
2014-8-27,93.6,82.5,70.4,74.0,71.4,68.0,93,71,46,30.10,29.95,11,2,15,0.00
2014-8-28,92.1,81.7,70.9,72.0,68.3,65.0,92,67,41,29.99,29.86,16,4,21,0.00
2014-8-29,88.3,78.8,69.4,72.0,69.7,67.0,94,75,53,29.92,29.84,13,5,17,0.01
2014-8-30,91.9,78.8,72.1,74.0,70.1,68.0,95,75,46,29.95,29.86,15,3,17,0.01
2014-8-31,93.1,82.7,72.2,75.0,71.9,70.0,94,72,50,29.95,29.77,22,10,27,0.00
2014-9-1,93.4,81.8,67.9,76.0,72.1,65.0,92,73,56,29.96,29.77,26,9,29,0.07
2014-9-2,82.3,74.0,67.6,73.0,68.8,65.0,94,84,70,30.08,29.83,16,5,24,0.03
2014-9-3,91.4,80.7,70.2,77.0,72.7,67.0,93,78,60,29.99,29.87,14,8,26,0.03
2014-9-4,94.2,84.2,75.3,74.0,71.9,69.0,88,68,45,30.00,29.91,19,8,25,0.00
2014-9-5,93.9,82.9,69.5,74.0,71.1,65.0,87,69,46,30.14,29.96,13,6,19,0.00
2014-9-6,70.5,65.6,63.0,65.0,62.8,61.0,95,90,81,30.22,30.12,10,4,21,0.09
2014-9-7,78.0,68.6,60.6,68.0,63.1,58.0,94,83,69,30.19,30.03,8,2,10,0.09
2014-9-8,86.4,74.2,62.2,73.0,68.4,61.0,97,83,63,30.08,29.91,12,3,16,0.00
2014-9-9,92.5,82.3,73.5,76.0,72.5,70.0,92,73,55,29.95,29.71,20,9,27,0.00
2014-9-10,90.2,82.2,71.1,74.0,70.7,65.0,81,69,55,29.93,29.66,19,10,28,0.00
2014-9-11,71.2,67.3,62.6,65.0,61.0,57.0,91,80,71,30.16,29.93,14,6,18,0.00
2014-9-12,63.0,57.8,54.3,57.0,54.0,49.0,95,87,78,30.39,30.14,12,7,20,0.04
2014-9-13,63.5,55.6,51.2,53.0,48.4,45.0,91,77,64,30.41,30.26,14,4,16,0.04
2014-9-14,76.9,63.7,50.5,65.0,57.9,49.0,96,82,64,30.30,30.13,14,4,17,0.00
2014-9-15,85.6,73.8,67.5,72.0,67.7,64.0,93,82,56,30.16,30.08,13,6,16,0.04
2014-9-16,77.1,70.3,66.4,69.0,66.3,64.0,95,87,74,30.17,30.02,6,2,9,0.00
2014-9-17,91.5,77.9,66.5,75.0,70.6,65.0,97,80,55,30.02,29.82,15,6,23,0.00
2014-9-18,84.1,72.2,64.7,71.0,66.9,63.0,95,84,58,30.04,29.87,14,3,24,0.51
2014-9-19,79.8,71.0,65.1,72.0,68.2,64.0,97,91,77,30.03,29.96,12,3,13,0.00
2014-9-20,86.5,76.0,67.7,74.0,70.2,67.0,98,83,60,30.06,29.96,13,4,18,0.01
2014-9-21,81.9,73.7,62.5,71.0,62.6,53.0,96,71,37,30.20,30.01,11,3,15,0.26
2014-9-22,77.2,65.2,52.2,58.0,54.0,50.0,94,69,43,30.32,30.19,10,2,13,0.00
2014-9-23,76.7,64.4,52.6,59.0,53.6,49.0,95,72,39,30.28,30.13,13,3,18,0.00
2014-9-24,80.3,67.1,54.6,58.0,54.2,52.0,93,66,38,30.25,30.15,13,3,16,0.00
2014-9-25,82.1,68.0,54.4,62.0,57.4,53.0,95,72,40,30.26,30.15,8,2,14,0.00
2014-9-26,81.2,69.7,59.6,64.0,60.1,57.0,94,74,48,30.20,30.09,15,2,18,0.00
2014-9-27,83.2,69.3,56.1,64.0,59.7,54.0,96,74,45,30.16,30.04,11,2,14,0.00
2014-9-28,84.4,70.0,57.1,67.0,61.3,55.0,96,76,47,30.14,30.04,8,1,14,0.00
2014-9-29,85.4,71.8,58.7,67.0,61.7,57.0,96,74,42,30.09,29.94,7,1,10,0.00
2014-9-30,84.8,72.0,58.9,67.0,63.0,57.0,95,75,53,29.95,29.78,18,5,22,0.00
2014-10-1,90.0,78.6,69.7,73.0,68.8,64.0,84,73,53,29.80,29.69,21,10,28,0.00
2014-10-2,77.4,71.5,61.1,73.0,67.3,56.0,96,86,74,29.94,29.68,23,8,51,1.87
2014-10-3,64.0,56.9,43.2,56.0,47.1,35.0,92,72,39,30.25,29.93,25,5,29,1.87
2014-10-4,72.1,55.2,38.9,47.0,39.8,33.0,94,62,28,30.23,29.92,7,2,14,0.00
2014-10-5,83.2,65.6,50.2,61.0,50.4,44.0,87,62,29,29.93,29.80,8,2,14,0.00
2014-10-6,81.3,68.4,54.3,63.0,55.9,46.0,94,68,29,29.91,29.80,11,3,15,0.00
2014-10-7,88.5,75.0,66.7,71.0,66.6,63.0,90,76,50,29.97,29.79,10,3,13,0.00
2014-10-8,85.2,75.5,66.4,73.0,69.4,64.0,95,82,66,30.02,29.94,19,7,23,0.00
2014-10-9,87.1,76.2,69.2,73.0,69.6,67.0,94,81,58,29.97,29.86,19,7,22,0.00
2014-10-10,74.4,63.9,54.0,70.0,61.5,52.0,95,92,84,30.08,29.84,18,6,22,0.30
2014-10-11,55.4,53.1,50.0,53.0,50.9,49.0,96,92,86,30.15,30.04,13,5,16,0.67
2014-10-12,65.4,57.6,53.6,63.0,55.3,53.0,96,92,82,30.05,29.69,17,6,23,0.01
2014-10-13,64.8,60.2,56.3,64.0,57.7,49.0,97,91,69,29.84,29.49,19,7,27,0.45
2014-10-14,69.7,60.7,54.1,48.0,43.5,40.0,69,55,35,30.05,29.83,17,8,25,0.45
2014-10-15,73.0,58.2,47.6,51.0,44.4,41.0,91,64,33,30.14,29.99,12,2,15,0.00
2014-10-16,84.1,63.5,44.9,58.0,51.5,43.0,94,69,35,29.98,29.75,17,6,22,0.00
2014-10-17,75.9,64.2,53.8,57.0,52.0,46.0,94,68,35,30.09,29.81,13,3,15,0.00
2014-10-18,67.3,57.6,47.1,53.0,48.8,45.0,92,74,51,30.23,30.09,9,2,13,0.00
2014-10-19,70.8,57.2,43.9,56.0,50.4,42.0,96,80,57,30.25,30.08,15,4,20,0.00
2014-10-20,75.5,63.7,56.2,64.0,58.3,54.0,93,83,66,30.13,30.03,8,2,10,0.13
2014-10-21,80.6,66.0,55.3,66.0,60.8,54.0,97,85,59,30.15,30.03,7,1,10,0.00
2014-10-22,77.8,66.7,57.5,65.0,59.6,56.0,96,79,54,30.21,30.09,11,3,15,0.00
2014-10-23,65.1,60.2,56.9,60.0,57.0,55.0,96,89,74,30.20,30.09,11,4,15,0.26
2014-10-24,79.4,66.8,56.9,65.0,59.8,55.0,92,79,62,30.16,30.04,14,5,17,0.26
2014-10-25,87.0,71.6,58.7,68.0,63.8,57.0,95,78,52,30.11,29.99,9,3,11,0.00
2014-10-26,86.1,72.8,60.5,65.0,61.8,59.0,96,71,44,29.99,29.76,27,8,31,0.00
2014-10-27,80.9,73.4,67.2,65.0,60.1,55.0,72,64,55,29.87,29.70,25,12,31,0.00
2014-10-28,68.4,59.0,46.5,57.0,47.3,42.0,90,67,42,30.21,29.86,18,4,23,0.13
2014-10-29,71.6,54.1,40.0,51.0,43.4,39.0,96,72,33,30.29,30.16,7,1,10,0.01
2014-10-30,74.7,59.3,45.0,51.0,44.3,39.0,91,62,30,30.21,30.08,14,3,22,0.00
2014-10-31,58.5,48.5,36.9,43.0,35.2,25.0,82,61,40,30.50,30.21,17,6,25,0.00
2014-11-1,55.3,41.9,27.4,32.0,26.1,22.0,89,57,28,30.54,30.34,15,4,17,0.00
2014-11-2,61.0,51.2,43.2,42.0,35.1,31.0,64,55,43,30.35,30.18,25,12,31,0.00
2014-11-3,68.1,59.0,49.9,58.0,49.5,37.0,85,71,59,30.21,30.06,24,10,29,0.02
2014-11-4,62.1,50.4,45.8,58.0,48.4,45.0,96,92,86,30.31,30.05,14,3,18,0.05
2014-11-5,59.5,48.5,41.8,48.0,42.8,40.0,97,83,50,30.30,30.20,6,1,9,0.06
2014-11-6,63.2,51.5,36.9,42.0,34.8,25.0,90,58,25,30.43,30.28,16,4,20,0.00
2014-11-7,66.8,50.0,32.4,40.0,36.0,30.0,94,63,33,30.36,29.97,19,7,25,0.00
2014-11-8,57.3,49.4,35.7,44.0,38.3,33.0,90,68,46,30.24,30.01,18,5,23,0.00
2014-11-9,70.0,52.3,32.8,44.0,38.7,31.0,93,64,37,30.19,29.75,20,8,25,0.00
2014-11-10,77.9,63.8,45.4,54.0,47.9,36.0,71,58,39,29.79,29.45,34,15,39,0.00
2014-11-11,44.1,36.3,30.0,35.0,23.3,16.0,82,60,47,30.44,29.80,22,10,28,0.00
2014-11-12,31.7,27.9,23.2,17.0,13.0,7.0,72,55,39,30.66,30.44,20,9,22,0.00
2014-11-13,32.9,26.9,19.5,16.0,12.0,6.0,84,55,43,30.72,30.58,15,5,19,0.00
2014-11-14,39.7,28.8,19.6,20.0,16.6,11.0,85,63,32,30.59,30.38,9,2,21,0.00
2014-11-15,39.0,33.8,24.8,29.0,22.2,19.0,80,63,51,30.39,30.14,18,7,23,0.00
2014-11-16,37.3,29.9,25.1,30.0,23.3,15.0,88,77,63,30.32,30.18,11,5,20,0.00
2014-11-17,32.2,25.3,17.0,17.0,13.2,9.0,82,61,38,30.50,30.31,21,5,22,0.00
2014-11-18,51.0,32.5,14.4,27.0,19.4,11.0,87,62,40,30.51,30.22,11,3,14,0.00
2014-11-19,57.1,44.5,36.2,31.0,26.1,21.0,72,49,35,30.28,30.13,13,4,19,0.00
2014-11-20,59.3,41.0,25.7,39.0,30.9,22.0,88,69,46,30.27,30.10,9,1,14,0.00
2014-11-21,57.3,49.1,34.5,51.0,44.7,30.0,94,84,76,30.20,30.11,17,6,23,0.10
2014-11-22,58.0,55.9,53.1,55.0,53.8,52.0,95,92,86,30.15,29.73,34,12,34,0.11
2014-11-23,65.8,56.2,44.0,59.0,52.2,40.0,96,87,70,29.73,29.31,28,9,32,0.06
2014-11-24,55.4,44.3,30.8,40.0,30.2,22.0,83,61,28,30.21,29.74,20,6,23,0.06
2014-11-25,50.7,39.8,29.3,27.0,23.4,16.0,84,54,32,30.37,30.12,8,2,13,0.00
2014-11-26,54.6,44.5,35.9,34.0,29.4,26.0,70,57,41,30.50,30.03,16,6,25,0.00
2014-11-27,46.1,36.5,26.6,29.0,25.7,22.0,84,66,46,30.64,30.35,14,4,16,0.00
2014-11-28,65.8,51.7,38.1,49.0,38.1,29.0,83,61,41,30.35,29.88,24,11,29,0.00
2014-11-29,76.0,64.4,53.5,57.0,48.2,44.0,83,58,32,29.87,29.69,26,15,33,0.00
2014-11-30,72.7,55.5,32.3,58.0,44.6,20.0,80,68,42,30.36,29.74,23,14,35,0.00
2014-12-1,32.3,28.8,27.6,20.0,15.0,13.0,65,57,52,30.62,30.36,16,8,25,0.00
2014-12-2,42.1,35.0,29.1,31.0,22.1,15.0,66,60,52,30.53,30.21,11,5,14,0.00
2014-12-3,48.6,43.3,36.4,43.0,37.2,30.0,95,79,64,30.38,30.24,10,2,14,0.02
2014-12-4,51.8,47.4,42.8,51.0,46.7,42.0,98,97,95,30.26,30.11,8,2,10,0.07
2014-12-5,60.5,53.9,48.0,60.0,53.0,47.0,98,96,94,30.30,30.00,15,6,19,0.08
2014-12-6,48.1,45.2,42.7,47.0,43.2,40.0,97,92,88,30.57,30.31,10,4,15,0.08
2014-12-7,48.7,44.4,40.3,45.0,42.4,39.0,97,92,86,30.54,30.32,11,3,16,0.00
2014-12-8,61.9,48.8,38.6,48.0,44.0,37.0,97,85,55,30.39,30.31,7,1,11,0.00
2014-12-9,48.0,39.5,31.1,39.0,33.1,28.0,97,79,56,30.47,30.34,9,2,14,0.00
2014-12-10,51.6,40.3,27.7,41.0,34.6,26.0,95,81,66,30.37,30.22,14,4,19,0.00
2014-12-11,53.3,47.2,44.7,44.0,40.8,39.0,85,78,70,30.31,30.21,9,4,14,0.00
2014-12-12,51.7,48.1,45.9,47.0,44.7,42.0,91,87,83,30.37,30.26,12,5,14,0.00
2014-12-13,62.9,52.7,46.9,56.0,50.3,45.0,98,91,79,30.29,30.09,16,8,22,0.00
2014-12-14,62.7,56.8,52.4,58.0,54.2,51.0,95,91,83,30.09,29.73,25,11,35,0.70
2014-12-15,58.2,48.8,41.3,57.0,41.2,29.0,95,75,57,30.14,29.69,18,9,31,0.70
2014-12-16,44.4,37.3,30.4,31.0,28.7,26.0,90,72,59,30.41,30.15,16,6,24,0.00
2014-12-17,36.3,34.2,30.3,35.0,31.8,28.0,95,90,82,30.42,30.25,7,2,11,0.41
2014-12-18,41.8,38.7,35.7,40.0,37.3,34.0,97,94,91,30.31,30.22,9,3,11,0.41
2014-12-19,40.2,39.0,37.3,38.0,37.1,36.0,96,92,89,30.34,30.26,7,3,11,0.00
2014-12-20,45.0,41.5,38.3,40.0,38.0,36.0,95,87,76,30.32,30.23,11,3,13,0.00
2014-12-21,48.6,45.2,41.9,45.0,42.8,40.0,96,91,82,30.23,29.77,19,8,24,0.01
2014-12-22,54.1,48.1,39.2,50.0,45.2,36.0,96,90,75,29.77,29.56,15,5,18,0.01
2014-12-23,47.1,43.1,39.6,40.0,34.2,31.0,92,72,56,29.95,29.72,16,6,19,0.00
2014-12-24,42.0,37.4,30.1,36.0,32.8,28.0,93,83,69,30.04,29.93,14,6,21,0.01
2014-12-25,59.4,45.7,31.6,34.0,31.6,29.0,90,61,33,29.98,29.86,28,13,36,0.00
2014-12-26,58.5,51.6,45.1,53.0,46.5,34.0,93,83,61,30.12,29.93,19,10,24,0.00
2014-12-27,44.4,32.9,23.9,39.0,29.8,22.0,94,88,80,30.40,30.12,15,4,20,0.04
2014-12-28,38.9,28.6,22.9,27.0,23.4,21.0,92,82,56,30.39,30.23,4,0,6,0.14
2014-12-29,44.8,34.3,21.9,33.0,26.8,20.0,95,76,53,30.44,30.23,10,2,13,0.01
2014-12-30,36.3,31.1,25.2,27.0,24.0,16.0,84,75,65,30.78,30.43,18,7,23,0.01
2014-12-31,25.8,22.9,19.0,17.0,13.0,10.0,70,66,62,30.78,30.54,12,4,16,0.00
2015-1-1,31.0,28.6,25.8,30.0,21.8,15.0,94,76,63,30.53,30.31,6,1,8,0.04
2015-1-2,37.3,34.6,31.0,36.0,33.6,30.0,97,96,94,30.35,30.06,8,1,9,0.09